Weather History for MMTO - June, 2013

Change the Weather History Date:

Monday, June 24, 2013

  Actual Average Record
Temperature  
Mean Temperature 58 °F -  
Max Temperature 68 °F 69 °F 75 °F (1998)
Min Temperature 48 °F 48 °F 44 °F (2002)
Degree Days  
Heating Degree Days 7    
Growing Degree Days 8 (Base 50)    
Moisture  
Dew Point 49 °F    
Average Humidity 75    
Maximum Humidity 88    
Minimum Humidity 52    
Precipitation  
Precipitation 0.65 in - - ()
Sea Level Pressure  
Sea Level Pressure 30.20 in    
Wind  
Wind Speed 4 mph ()    
Max Wind Speed 16 mph    
Max Gust Speed -    
Visibility 4.9 miles    
Events Rain , Thunderstorm    
Averages and records for this station are not official NWS values.
T = Trace of Precipitation, MM = Missing Value Source: Averaged Metar Reports

Daily Weather History Graph

Daily Weather History Graph

Search for Another Location

Airport or City:

Trip Planner

Search our weather history database for the weather conditions in past years. The results will help you decide how hot, cold, wet, or windy it might be!

Date:

Astronomy

Jun. 24, 2013 Rise Set
Actual Time 7:01 AM CDT 8:19 PM CDT
Civil Twilight 6:37 AM CDT 8:44 PM CDT
Nautical Twilight 6:08 AM CDT 9:13 PM CDT
Astronomical Twilight 5:38 AM CDT 9:43 PM CDT
Moon 9:40 PM CDT (6/24) 8:18 AM CDT (6/24)
Length of Visible Light 14h 06m
Length of Day
13h 17m
Full, 98% of the Moon is Illuminated
Jun 24
Full
Jun 29
Last Quarter
Jul 8
New
Jul 15
First Quarter
Jul 22
Full

Hourly Weather History & Observations

Time (CDT) Temp. Dew Point Humidity Pressure Visibility Wind Dir Wind Speed Gust Speed Precip Events Conditions
12:45 AM 53.6 °F 50.0 °F 88% 29.82 in 5.0 mi Calm Calm - N/A   Mostly Cloudy
1:45 AM 53.6 °F 50.0 °F 88% 30.40 in 5.0 mi Calm Calm - N/A   Mostly Cloudy
2:45 AM 53.6 °F 48.2 °F 82% 30.38 in 7.0 mi Calm Calm - N/A   Mostly Cloudy
3:45 AM 51.8 °F 48.2 °F 88% 29.83 in 8.0 mi Calm Calm - N/A   Scattered Clouds
4:45 AM 50.0 °F 46.4 °F 87% 30.35 in 8.0 mi Calm Calm - N/A   Scattered Clouds
5:45 AM 50.0 °F 46.4 °F 87% 30.36 in 8.0 mi Calm Calm - N/A   Scattered Clouds
6:45 AM 50.0 °F 46.4 °F 87% 29.86 in 3.0 mi Calm Calm - N/A   Scattered Clouds
7:45 AM 48.2 °F 44.6 °F 87% 30.38 in 3.0 mi Calm Calm - N/A   Haze
8:45 AM 57.2 °F 50.0 °F 77% 30.40 in 5.0 mi ESE 5.8 mph - N/A   Scattered Clouds
9:45 AM 59.0 °F 50.0 °F 72% 29.88 in 5.0 mi SSE 5.8 mph - N/A   Scattered Clouds
10:45 AM 62.6 °F 50.0 °F 63% 30.42 in 5.0 mi SSE 5.8 mph - N/A   Mostly Cloudy
12:45 PM 62.6 °F 50.0 °F 63% 29.85 in 5.0 mi South 10.4 mph - N/A   Mostly Cloudy
1:45 PM 64.4 °F 50.0 °F 59% 30.40 in 5.0 mi South 9.2 mph - N/A   Mostly Cloudy
2:40 PM 68.0 °F 50.0 °F 52% 30.38 in 6.0 mi SE 13.8 mph - N/A   Overcast
3:45 PM 64.4 °F 50.0 °F 59% 29.81 in 6.0 mi SE 9.2 mph - N/A   Overcast
4:51 PM 66.2 °F 50.0 °F 56% 30.33 in 6.0 mi SSE 11.5 mph - N/A   Overcast
5:41 PM 64.4 °F 51.8 °F 64% 30.32 in 6.0 mi South 12.7 mph - N/A   Mostly Cloudy
6:42 PM 64.4 °F 50.0 °F 59% 29.80 in 6.0 mi SSE 12.7 mph - N/A   Mostly Cloudy
7:43 PM 62.6 °F 50.0 °F 63% 30.32 in 3.0 mi South 13.8 mph - N/A Rain Light Rain
8:07 PM 59.0 °F 51.8 °F 77% 30.36 in 2.0 mi South 16.1 mph - N/A Rain , Thunderstorm Light Thunderstorms and Rain
8:43 PM 53.6 °F 50.0 °F 88% 30.39 in 2.0 mi NE 5.8 mph - N/A Rain , Thunderstorm Thunderstorms and Rain
9:48 PM 53.6 °F 50.0 °F 88% 29.86 in 2.0 mi WNW 4.6 mph - N/A Rain , Thunderstorm Light Thunderstorms and Rain
10:43 PM 53.6 °F 50.0 °F 88% 30.42 in 3.0 mi Calm Calm - N/A   Haze
11:42 PM 53.6 °F 50.0 °F 88% 30.44 in 3.0 mi Calm Calm - N/A Rain Light Rain